Regional Weather Roundup
Issued by NWS

Home | Current Version | Previous Version | Text Only | Print | Product List | Glossary Off
Versions: 1 2 3 4 5 6 7 8 9 10 11 12 13 14 15 16 17 18 19 20 21 22 23 24 25 26 27 28 29 30 31 32 33 34 35 36 37 38 39 40 41 42 43 44 45 46 47 48 49 50

300
ASUS43 KMKX 251159
RWRWI

WISCONSIN REGIONAL WEATHER ROUNDUP
NATIONAL WEATHER SERVICE MILWAUKEE/SULLIVAN WI
700 AM CDT THU MAY 25 2017

NOTE: "FAIR" INDICATES FEW OR NO CLOUDS BELOW 12,000 FEET WITH NO
SIGNIFICANT WEATHER AND/OR OBSTRUCTIONS TO VISIBILITY.

WIZ001-002-006>008-014>016-023>028-251300-
NORTHWEST WISCONSIN

CITY           SKY/WX    TMP DP  RH WIND       PRES   REMARKS
SUPERIOR ARPT  NOT AVBL
ASHLAND        CLOUDY    42  41  96 W5        29.77R
6HR MIN TEMP:  34; 6HR MAX TEMP:  42;

HAYWARD        CLOUDY    51  46  83 E5        29.74S
6HR MIN TEMP:  40; 6HR MAX TEMP:  51;

SIREN          CLOUDY    45  44  97 CALM      29.74R
CUMBERLAND     CLOUDY    46  46 100 CALM      29.74R
RICE LAKE      CLOUDY    53  48  83 CALM      29.74R
CHETEK         CLOUDY    52  49  88 CALM      29.73R
LADYSMITH      SUNNY     50  48  93 CALM      29.75R
EAU CLAIRE     NOT AVBL
MENOMONIE      CLOUDY    49  47  96 W5        29.73R
NEW RICHMOND   SUNNY     46  46  99 SE3       29.73R
OSCEOLA        SUNNY     48  48 100 E3        29.75S
$$

WIZ003>005-009-010-017-018-251300-
NORTH CENTRAL WISCONSIN

CITY           SKY/WX    TMP DP  RH WIND       PRES   REMARKS
MANITOWISH WTR SUNNY     47  47 100 CALM      29.74S
ARBOR VITAE    SUNNY     47  46  96 CALM      29.73S
WOODRUFF       SUNNY     47  46  96 CALM      29.73S
RHINELANDER    SUNNY     50  46  86 NE6       29.73S
6HR MIN TEMP:  47; 6HR MAX TEMP:  50;

EAGLE RIVER    MOSUNNY   47  45  92 NE3       29.73S
LAND O LAKES   PTSUNNY   47  43  85 CALM      29.76S
PHILLIPS       SUNNY     47  47 100 CALM      29.73S
TOMAHAWK       PTSUNNY   47  46  97 CALM      29.73S
MEDFORD        PTSUNNY   46  44  96 NE3       29.72R
MERRILL        SUNNY     47  47 100 CALM      29.72S
$$

WIZ029-030-035-036-043>047-251300-
CENTRAL WISCONSIN

CITY           SKY/WX    TMP DP  RH WIND       PRES   REMARKS
WAUSAU         SUNNY     51  48  89 N6        29.70R
6HR MIN TEMP:  48; 6HR MAX TEMP:  51;

MOSINEE        MOSUNNY   50  50 100 N7        29.72R
MARSHFIELD     PTSUNNY   50  46  86 NE5       29.71R
6HR MIN TEMP:  45; 6HR MAX TEMP:  50;

STEVENS POINT  SUNNY     46  46 100 NW3       29.70S
WAUPACA        SUNNY     50  50  97 CALM      29.69R
WAUTOMA        MOSUNNY   51  48  89 VRB6      29.69F
6HR MIN TEMP:  50; 6HR MAX TEMP:  53;

WISC RAPIDS    SUNNY     52  49  89 N6        29.72R
6HR MIN TEMP:  49; 6HR MAX TEMP:  54;

CAMP DOUGLAS   CLOUDY    52  50  93 NE5       29.69S
$$

WIZ011>013-019>022-031-037>040-048>050-251300-
NORTHEAST WISCONSIN

CITY           SKY/WX    TMP DP  RH WIND       PRES   REMARKS
ANTIGO         MOSUNNY   47  46  93 NE8       29.71S
SHAWANO        SUNNY     52  48  86 NE7       29.69S
OCONTO         SUNNY     49  46  86 N7        29.67S
STURGEON BAY   SUNNY     54  49  83 NE8       29.67R
6HR MIN TEMP:  48; 6HR MAX TEMP:  54;

GREEN BAY      MOSUNNY   51  50  96 N8        29.67R
6HR MIN TEMP:  48; 6HR MAX TEMP:  51;

MANITOWOC      NOT AVBL
APPLETON       MOSUNNY   50  48  93 N10       29.66R
CLINTONVILLE   SUNNY     50  46  87 N6        29.68R
OSHKOSH        CLOUDY    51  48  89 N9        29.66R
6HR MIN TEMP:  51; 6HR MAX TEMP:  53;

$$

WIZ032>034-041-042-053>061-251300-
SOUTHWEST WISCONSIN

CITY           SKY/WX    TMP DP  RH WIND       PRES   REMARKS
LA CROSSE      FOG       50  49  96 CALM      29.71R VSB 1/2
6HR MIN TEMP:  44; 6HR MAX TEMP:  53;

SPARTA         CLOUDY    49  49 100 CALM      29.70S
VIROQUA        CLOUDY    51  49  92 MISG      29.70R
BOSCOBEL       CLOUDY    56  49  77 NE6       29.69R
6HR MIN TEMP:  52; 6HR MAX TEMP:  56;

PRAIRIE DU CHI CLOUDY    53  48  83 CALM      29.70R
PLATTEVILLE    CLOUDY    53  52  98 N12       29.68R
$$

WIZ056-057-062-063-064-067-068-251300-
SOUTH CENTRAL WISCONSIN

CITY           SKY/WX    TMP DP  RH WIND       PRES   REMARKS
REEDSBURG      CLOUDY    52  51  98 N9        29.69R
BARABOO/DELLS  CLOUDY    52  49  89 NE6       29.68S
LONE ROCK      NOT AVBL
MINERAL POINT  CLOUDY    54  52  94 N10       29.67S
MADISON        CLOUDY    53  50  89 N10       29.66S
6HR MIN TEMP:  52; 6HR MAX TEMP:  53;

MIDDLETON      CLOUDY    54  53  96 N9        29.67S
WATERTOWN      CLOUDY    52  52  99 N6        29.65R
MONROE         CLOUDY    52  50  93 N13       29.65S
JANESVILLE     CLOUDY    55  54  94 N14       29.64S
$$

WIZ051-052-058>065-066-070>072-251300-
SOUTHEAST WISCONSIN

CITY           SKY/WX    TMP DP  RH WIND       PRES   REMARKS
MILWAUKEE      PTSUNNY   55  51  86 NW8G20    29.61S
6HR MIN TEMP:  53; 6HR MAX TEMP:  55;

WAUKESHA       CLOUDY    52  50  93 NW7       29.64R
MILWAUKEE/TIMM   N/A     52  46  82 N10       29.63R
RACINE         CLOUDY    51  47  86 N16       29.62R
6HR MIN TEMP:  50; 6HR MAX TEMP:  52;

KENOSHA        PTSUNNY   54  50  86 N9        29.60S
6HR MIN TEMP:  51; 6HR MAX TEMP:  54;

FOND DU LAC    CLOUDY    52  48  86 N8        29.66R
6HR MIN TEMP:  52; 6HR MAX TEMP:  54;

SHEBOYGAN      CLOUDY    52  50  93 N8        29.63S
6HR MIN TEMP:  49; 6HR MAX TEMP:  52;

WEST BEND      CLOUDY    52  50  93 N7        29.64R
JUNEAU         CLOUDY    52  50  92 N8        29.67R
$$

LSZ147-162-251300-
LAKE SUPERIOR

STATION/POSITION TIME  TEMP    WIND        PRES    WAVE
                       AIR SEA DIR/SP/G            HT/PER
                 (UTC) (F)     (DEG/KT/KT) (MB)    (FT/S)
$$

LMZ867-665-643>646-251300-
LAKE MICHIGAN

STATION/POSITION TIME  TEMP    WIND        PRES    WAVE
                       AIR SEA DIR/SP/G            HT/PER
                 (UTC) (F)     (DEG/KT/KT) (MB)    (FT/S)
$$

TC  - TEMPERATURE IN CELSIUS
VSB - VISIBILITY IN STATUTE MILES
WCI - WIND CHILL INDEX
HX  - HEAT INDEX





USA.gov is the U.S. government's official web portal to all federal, state and local government web resources and services.